Eindhoven, Netherlands

11:46 PM CET on March 25, 2017 (GMT +0100)
Eindhoven Air Base

Weather History for EHEH - December, 2012

Change the Weather History Date:

Monday, December 17, 2012

  Actual Average Record
Temperature  
Mean Temperature 42 °F -  
Max Temperature 46 °F 41 °F 61 °F (2015)
Min Temperature 39 °F 31 °F 21 °F (1997)
Degree Days  
Heating Degree Days 22    
Moisture  
Dew Point 43 °F    
Average Humidity 96    
Maximum Humidity 100    
Minimum Humidity 90    
Precipitation  
Precipitation 0.24 in - - ()
Sea Level Pressure  
Sea Level Pressure 29.62 in    
Wind  
Wind Speed 7 mph ()    
Max Wind Speed 12 mph    
Max Gust Speed -    
Visibility 5.3 miles    
Events Rain    
Averages and records for this station are not official NWS values.
T = Trace of Precipitation, MM = Missing Value Source: Averaged Metar Reports

Daily Weather History Graph

Daily Weather History Graph

Search for Another Location

Airport or City:

Trip Planner

Search our weather history database for the weather conditions in past years. The results will help you decide how hot, cold, wet, or windy it might be!

Date:

Astronomy

Dec. 17, 2012 Rise Set
Actual Time 8:39 AM CET 4:30 PM CET
Civil Twilight 7:58 AM CET 5:10 PM CET
Nautical Twilight 7:15 AM CET 5:53 PM CET
Astronomical Twilight 6:34 AM CET 6:34 PM CET
Moon 11:11 AM CET (12/17) 10:05 PM CET (12/17)
Length of Visible Light 9h 11m
Length of Day
7h 51m
Waxing Crescent, 22% of the Moon is Illuminated
Dec 17
Waxing Crescent
Dec 20
First Quarter
Dec 28
Full
Jan 5
Last Quarter
Jan 11
New

Hourly Weather History & Observations

Time (CET) Temp. Windchill Dew Point Humidity Pressure Visibility Wind Dir Wind Speed Gust Speed Precip Events Conditions
12:04 AM 41.0 °F 37.1 °F 39.2 °F 93% 29.62 in 4.3 mi SSE 5.8 mph - N/A   Mist
12:11 AM 39.2 °F 35.9 °F 39.2 °F 100% 29.62 in 5.0 mi SSE 4.6 mph - N/A   Partly Cloudy
12:17 AM 39.2 °F 35.9 °F 39.2 °F 100% 29.62 in 4.3 mi SSE 4.6 mph - N/A   Partly Cloudy
12:25 AM 41.0 °F 38.0 °F 39.2 °F 93% 29.62 in - SSE 4.6 mph - N/A   Mostly Cloudy
12:30 AM 39.2 °F 35.9 °F 39.2 °F 100% 29.62 in 3.1 mi SSE 4.6 mph - N/A   Mostly Cloudy
12:40 AM 39.2 °F 35.0 °F 39.2 °F 100% 29.62 in 3.7 mi South 5.8 mph - N/A   Mist
12:48 AM 39.2 °F 35.0 °F 39.2 °F 100% 29.62 in 5.0 mi South 5.8 mph - N/A   Partly Cloudy
12:55 AM 39.2 °F 35.9 °F 39.2 °F 100% 29.62 in 4.3 mi South 4.6 mph - N/A   Mostly Cloudy
1:00 AM 40 °F - 40 °F 98% 29.62 in 4 mi SSE 4.5 mph - -   Mist
1:02 AM 39.2 °F 35.9 °F 39.2 °F 100% 29.62 in 5.0 mi South 4.6 mph - N/A   Overcast
1:06 AM 39.2 °F 35.9 °F 39.2 °F 100% 29.62 in 4.3 mi SSE 4.6 mph - N/A   Overcast
1:10 AM 39.2 °F 35.9 °F 39.2 °F 100% 29.62 in 5.0 mi South 4.6 mph - N/A   Overcast
1:25 AM 41.0 °F 37.1 °F 41.0 °F 100% 29.62 in 5.6 mi South 5.8 mph - N/A   Overcast
1:55 AM 42.8 °F 39.3 °F 42.8 °F 100% 29.59 in 4.3 mi South 5.8 mph - N/A Rain Rain
1:59 AM 42.8 °F 39.3 °F 42.8 °F 100% 29.59 in 5.0 mi South 5.8 mph - N/A Rain Light Rain
2:13 AM 42.8 °F 41.1 °F 42.8 °F 100% 29.59 in 5.6 mi South 3.5 mph - N/A   Mostly Cloudy
2:25 AM 42.8 °F 41.1 °F 41.0 °F 93% 29.59 in 5.6 mi South 3.5 mph - N/A   Mostly Cloudy
2:55 AM 42.8 °F 39.3 °F 42.8 °F 100% 29.59 in 6.2 mi South 5.8 mph - N/A   Mostly Cloudy
3:25 AM 42.8 °F 39.3 °F 42.8 °F 100% 29.59 in 6.2 mi South 5.8 mph - N/A   Overcast
3:49 AM 42.8 °F 38.6 °F 42.8 °F 100% 29.59 in 6.2 mi South 6.9 mph - N/A   Overcast
3:55 AM 42.8 °F 39.3 °F 42.8 °F 100% 29.59 in 6.2 mi South 5.8 mph - N/A   Overcast
4:00 AM 42 °F - 42 °F 99% 29.61 in 7 mi South 6.7 mph - -   Partly Cloudy
4:15 AM 42.8 °F 39.3 °F 41.0 °F 93% 29.59 in 6.2 mi South 5.8 mph - N/A   Overcast
4:25 AM 42.8 °F 38.6 °F 42.8 °F 100% 29.59 in 6.2 mi South 6.9 mph - N/A   Overcast
4:55 AM 42.8 °F 38.6 °F 42.8 °F 100% 29.59 in 6.2 mi South 6.9 mph - N/A   Overcast
5:25 AM 44.6 °F 40.2 °F 42.8 °F 93% 29.59 in 6.2 mi South 8.1 mph - N/A   Overcast
5:42 AM 44.6 °F 40.2 °F 42.8 °F 93% 29.59 in 6.2 mi South 8.1 mph - N/A   Overcast
5:46 AM 44.6 °F 40.2 °F 42.8 °F 93% 29.59 in 6.2 mi South 8.1 mph - N/A   Overcast
5:55 AM 44.6 °F 40.7 °F 42.8 °F 93% 29.59 in 6.2 mi South 6.9 mph - N/A   Overcast
6:25 AM 44.6 °F 40.7 °F 42.8 °F 93% 29.59 in 6.2 mi South 6.9 mph - N/A   Overcast
6:55 AM 44.6 °F 40.7 °F 42.8 °F 93% 29.59 in 5.6 mi South 6.9 mph - N/A   Overcast
7:00 AM 44 °F - 43 °F 97% 29.60 in 5 mi South 6.7 mph - - Rain Light Rain Showers
7:01 AM 44.6 °F 40.7 °F 42.8 °F 93% 29.59 in 4.3 mi South 6.9 mph - N/A Rain Light Rain
7:05 AM 44.6 °F 40.7 °F 42.8 °F 93% 29.59 in 5.6 mi South 6.9 mph - N/A   Mostly Cloudy
7:18 AM 44.6 °F 40.7 °F 42.8 °F 93% 29.59 in 5.6 mi South 6.9 mph - N/A   Mostly Cloudy
7:25 AM 44.6 °F 40.7 °F 42.8 °F 93% 29.59 in 5.6 mi South 6.9 mph - N/A   Overcast
7:39 AM 44.6 °F 40.7 °F 42.8 °F 93% 29.59 in 6.2 mi South 6.9 mph - N/A   Mostly Cloudy
7:44 AM 44.6 °F 40.7 °F 42.8 °F 93% 29.59 in 6.2 mi South 6.9 mph - N/A   Mostly Cloudy
7:46 AM 44.6 °F 40.2 °F 42.8 °F 93% 29.59 in 6.2 mi South 8.1 mph - N/A   Overcast
7:50 AM 44.6 °F 40.2 °F 42.8 °F 93% 29.59 in 6.2 mi South 8.1 mph - N/A   Mostly Cloudy
7:55 AM 44.6 °F 40.7 °F 42.8 °F 93% 29.59 in 6.2 mi South 6.9 mph - N/A   Mostly Cloudy
8:00 AM 44.6 °F 40.7 °F 42.8 °F 93% 29.59 in 6.2 mi South 6.9 mph - N/A   Overcast
8:01 AM 44.6 °F 41.4 °F 42.8 °F 93% 29.59 in 6.2 mi South 5.8 mph - N/A   Overcast
8:08 AM 44.6 °F 41.4 °F 42.8 °F 93% 29.59 in 6.2 mi South 5.8 mph - N/A   Drizzle
8:25 AM 44.6 °F 40.7 °F 44.6 °F 100% 29.59 in 6.2 mi South 6.9 mph - N/A   Overcast
8:55 AM 44.6 °F 40.2 °F 44.6 °F 100% 29.59 in 6.2 mi SSW 8.1 mph - N/A   Overcast
9:25 AM 44.6 °F 40.2 °F 44.6 °F 100% 29.59 in 6.2 mi SSW 8.1 mph - N/A   Overcast
9:28 AM 44.6 °F 40.2 °F 44.6 °F 100% 29.59 in 6.2 mi SSW 8.1 mph - N/A   Overcast
9:37 AM 44.6 °F 40.7 °F 44.6 °F 100% 29.59 in 6.2 mi South 6.9 mph - N/A   Overcast
9:43 AM 44.6 °F 40.7 °F 44.6 °F 100% 29.59 in 6.2 mi South 6.9 mph - N/A   Overcast
9:55 AM 46.4 °F 42.4 °F 44.6 °F 93% 29.59 in 6.2 mi South 8.1 mph - N/A   Overcast
9:59 AM 46.4 °F 42.4 °F 44.6 °F 93% 29.59 in 6.2 mi South 8.1 mph - N/A   Overcast
10:00 AM 46 °F - 44 °F 90% 29.62 in 9 mi South 8.9 mph - -   Overcast
10:25 AM 46.4 °F 42.4 °F 44.6 °F 93% 29.62 in 6.2 mi South 8.1 mph - N/A   Overcast
10:29 AM 46.4 °F 42.4 °F 44.6 °F 93% 29.62 in 6.2 mi South 8.1 mph - N/A   Overcast
10:55 AM 46.4 °F 42.9 °F 44.6 °F 93% 29.62 in 6.2 mi South 6.9 mph - N/A   Overcast
11:03 AM 46.4 °F 42.9 °F 44.6 °F 93% 29.62 in 6.2 mi South 6.9 mph - N/A   Overcast
11:25 AM 46.4 °F 42.4 °F 44.6 °F 93% 29.62 in 6.2 mi South 8.1 mph - N/A Rain Light Rain Showers
11:32 AM 46.4 °F 42.4 °F 44.6 °F 93% 29.62 in 4.3 mi South 8.1 mph - N/A Rain Light Rain
11:45 AM 46.4 °F 41.9 °F 44.6 °F 93% 29.59 in 6.2 mi South 9.2 mph - N/A Rain Light Rain
11:55 AM 46.4 °F 42.4 °F 44.6 °F 93% 29.59 in 6.2 mi South 8.1 mph - N/A Rain Light Rain
11:59 AM 46.4 °F 42.4 °F 44.6 °F 93% 29.59 in 6.2 mi South 8.1 mph - N/A Rain Light Rain
12:01 PM 46.4 °F 42.4 °F 44.6 °F 93% 29.59 in 6.2 mi South 8.1 mph - N/A Rain Light Rain
12:07 PM 46.4 °F 42.4 °F 44.6 °F 93% 29.59 in 6.2 mi South 8.1 mph - N/A Rain Light Rain Showers
12:11 PM 46.4 °F 42.9 °F 44.6 °F 93% 29.59 in 6.2 mi South 6.9 mph - N/A Rain Light Rain Showers
12:14 PM 46.4 °F 42.9 °F 44.6 °F 93% 29.59 in 4.3 mi South 6.9 mph - N/A Rain Light Rain
12:15 PM 46.4 °F 42.9 °F 44.6 °F 93% 29.59 in 4.3 mi South 6.9 mph - N/A Rain Light Rain
12:21 PM 46.4 °F 42.9 °F 44.6 °F 93% 29.59 in 4.3 mi South 6.9 mph - N/A Rain Light Rain
12:25 PM 46.4 °F 42.9 °F 44.6 °F 93% 29.59 in 4.3 mi South 6.9 mph - N/A Rain Light Rain
12:26 PM 46.4 °F 42.4 °F 44.6 °F 93% 29.59 in 5.0 mi South 8.1 mph - N/A Rain Light Rain
12:37 PM 46.4 °F 42.4 °F 44.6 °F 93% 29.59 in 5.0 mi South 8.1 mph - N/A Rain Light Rain
12:41 PM 46.4 °F 42.4 °F 44.6 °F 93% 29.59 in 5.0 mi South 8.1 mph - N/A Rain Light Rain
12:55 PM 46.4 °F 42.4 °F 44.6 °F 93% 29.59 in 5.0 mi SSW 8.1 mph - N/A Rain Rain
1:00 PM 46 °F - 44 °F 92% 29.60 in 6 mi SSW 8.9 mph - - Rain Rain
1:03 PM 46.4 °F 42.4 °F 44.6 °F 93% 29.59 in 4.3 mi SSW 8.1 mph - N/A Rain Light Rain
1:07 PM 46.4 °F 42.4 °F 44.6 °F 93% 29.59 in 5.0 mi SSW 8.1 mph - N/A Rain Light Rain Showers
1:08 PM 46.4 °F 42.9 °F 44.6 °F 93% 29.59 in 4.3 mi SSW 6.9 mph - N/A Rain Light Rain Showers
1:15 PM 46.4 °F 42.4 °F 44.6 °F 93% 29.59 in 2.8 mi SSW 8.1 mph - N/A Rain Light Rain
1:25 PM 46.4 °F 41.9 °F 44.6 °F 93% 29.59 in 3.7 mi SSW 9.2 mph - N/A Rain Light Rain
1:29 PM 46.4 °F 42.4 °F 44.6 °F 93% 29.59 in 4.3 mi SSW 8.1 mph - N/A Rain Light Rain Showers
1:33 PM 46.4 °F 42.4 °F 44.6 °F 93% 29.59 in 4.3 mi SSW 8.1 mph - N/A Rain Light Rain Showers
1:34 PM 44.6 °F 40.7 °F 44.6 °F 100% 29.59 in 4.3 mi SW 6.9 mph - N/A Rain Light Rain
1:41 PM 44.6 °F 40.7 °F 44.6 °F 100% 29.59 in 3.1 mi SW 6.9 mph - N/A Rain Light Rain
1:45 PM 44.6 °F 40.7 °F 44.6 °F 100% 29.59 in 3.1 mi SW 6.9 mph - N/A Rain Light Rain
1:48 PM 44.6 °F 40.7 °F 44.6 °F 100% 29.59 in 4.3 mi SSW 6.9 mph - N/A   Drizzle
1:55 PM 44.6 °F 40.2 °F 44.6 °F 100% 29.59 in 3.7 mi SSW 8.1 mph - N/A   Drizzle
2:08 PM 46.4 °F 41.1 °F 44.6 °F 93% 29.59 in 4.3 mi SW 11.5 mph - N/A Rain Heavy Rain Showers
2:12 PM 46.4 °F 41.1 °F 44.6 °F 93% 29.59 in 3.7 mi SW 11.5 mph - N/A Rain Light Rain
2:15 PM 46.4 °F 41.5 °F 44.6 °F 93% 29.59 in 3.7 mi SW 10.4 mph - N/A Rain Rain
2:21 PM 46.4 °F 41.9 °F 44.6 °F 93% 29.59 in 3.7 mi WSW 9.2 mph - N/A   Drizzle
2:25 PM 46.4 °F 42.4 °F 44.6 °F 93% 29.59 in 5.0 mi WSW 8.1 mph - N/A   Drizzle
2:35 PM 46.4 °F 41.9 °F 44.6 °F 93% 29.59 in 6.2 mi SW 9.2 mph - N/A   Light Drizzle
2:55 PM 46.4 °F 41.9 °F 44.6 °F 93% 29.59 in 6.2 mi SW 9.2 mph - N/A   Mostly Cloudy
3:05 PM 46.4 °F 41.9 °F 44.6 °F 93% 29.59 in 4.3 mi SW 9.2 mph - N/A   Mostly Cloudy
3:25 PM 46.4 °F 41.9 °F 44.6 °F 93% 29.59 in 6.2 mi SW 9.2 mph - N/A   Mostly Cloudy
3:33 PM 46.4 °F 41.9 °F 44.6 °F 93% 29.59 in 4.3 mi SW 9.2 mph - N/A   Mostly Cloudy
3:41 PM 46.4 °F 41.5 °F 44.6 °F 93% 29.59 in 6.2 mi SW 10.4 mph - N/A Rain Drizzle
3:47 PM 46.4 °F 41.5 °F 44.6 °F 93% 29.59 in 6.2 mi SW 10.4 mph - N/A   Light Drizzle
3:48 PM 46.4 °F 41.5 °F 44.6 °F 93% 29.59 in 6.2 mi SW 10.4 mph - N/A   Mostly Cloudy
3:55 PM 46.4 °F 41.5 °F 44.6 °F 93% 29.59 in 6.2 mi SW 10.4 mph - N/A   Mostly Cloudy
4:00 PM 46 °F - 45 °F 93% 29.62 in 8 mi SW 8.9 mph - - Rain Rain
4:08 PM 46.4 °F 41.9 °F 44.6 °F 93% 29.59 in 6.2 mi SW 9.2 mph - N/A   Mostly Cloudy
4:25 PM 46.4 °F 41.9 °F 44.6 °F 93% 29.62 in 6.2 mi SW 9.2 mph - N/A   Overcast
4:46 PM 46.4 °F 41.9 °F 44.6 °F 93% 29.62 in 6.2 mi SW 9.2 mph - N/A   Overcast
4:51 PM 46.4 °F 42.4 °F 44.6 °F 93% 29.62 in 6.2 mi SW 8.1 mph - N/A   Mostly Cloudy
4:55 PM 46.4 °F 42.4 °F 44.6 °F 93% 29.62 in 6.2 mi SSW 8.1 mph - N/A   Mostly Cloudy
5:06 PM 44.6 °F 40.7 °F 44.6 °F 100% 29.62 in 6.2 mi SSW 6.9 mph - N/A   Overcast
5:10 PM 44.6 °F 40.7 °F 44.6 °F 100% 29.62 in 6.2 mi SW 6.9 mph - N/A   Overcast
5:14 PM 44.6 °F 40.7 °F 44.6 °F 100% 29.62 in 6.2 mi SW 6.9 mph - N/A   Overcast
5:19 PM 44.6 °F 40.7 °F 44.6 °F 100% 29.62 in 6.2 mi SW 6.9 mph - N/A   Overcast
5:25 PM 44.6 °F 40.7 °F 44.6 °F 100% 29.62 in 6.2 mi SW 6.9 mph - N/A   Mostly Cloudy
5:38 PM 44.6 °F 39.7 °F 44.6 °F 100% 29.62 in 6.2 mi SW 9.2 mph - N/A   Overcast
5:55 PM 44.6 °F 40.2 °F 42.8 °F 93% 29.62 in 6.2 mi SW 8.1 mph - N/A   Scattered Clouds
6:06 PM 42.8 °F 38.6 °F 42.8 °F 100% 29.65 in 6.2 mi SW 6.9 mph - N/A   Mostly Cloudy
6:10 PM 44.6 °F 40.7 °F 44.6 °F 100% 29.65 in 4.3 mi SW 6.9 mph - N/A Rain Light Rain
6:14 PM 44.6 °F 40.7 °F 44.6 °F 100% 29.65 in 3.7 mi WSW 6.9 mph - N/A Rain Rain
6:18 PM 44.6 °F 40.7 °F 44.6 °F 100% 29.65 in 3.7 mi West 6.9 mph - N/A Rain Rain Showers
6:25 PM 44.6 °F 40.2 °F 42.8 °F 93% 29.65 in 3.7 mi West 8.1 mph - N/A Rain Heavy Rain Showers
6:30 PM 44.6 °F 40.2 °F 42.8 °F 93% 29.65 in 2.8 mi WSW 8.1 mph - N/A Rain Rain Showers
6:35 PM 44.6 °F 40.7 °F 42.8 °F 93% 29.65 in 5.0 mi WSW 6.9 mph - N/A Rain Light Rain Showers
6:39 PM 44.6 °F 40.7 °F 42.8 °F 93% 29.65 in 5.0 mi SW 6.9 mph - N/A Rain Rain Showers
6:46 PM 44.6 °F 40.2 °F 44.6 °F 100% 29.65 in 4.3 mi SW 8.1 mph - N/A Rain Light Rain
6:50 PM 44.6 °F 40.2 °F 44.6 °F 100% 29.65 in 5.0 mi SW 8.1 mph - N/A Rain Light Rain
6:55 PM 44.6 °F 40.2 °F 44.6 °F 100% 29.65 in 4.3 mi WSW 8.1 mph - N/A Rain Light Rain
6:59 PM 44.6 °F 40.2 °F 44.6 °F 100% 29.65 in 3.7 mi WSW 8.1 mph - N/A Rain Light Rain
7:00 PM 45 °F - 44 °F 94% 29.67 in 4 mi WSW 6.7 mph - - Rain Light Rain
7:03 PM 44.6 °F 40.7 °F 44.6 °F 100% 29.65 in 3.7 mi WSW 6.9 mph - N/A Rain Rain
7:07 PM 44.6 °F 40.7 °F 44.6 °F 100% 29.65 in 5.6 mi WSW 6.9 mph - N/A Rain Light Rain
7:10 PM 44.6 °F 40.7 °F 44.6 °F 100% 29.65 in 5.6 mi WSW 6.9 mph - N/A   Mostly Cloudy
7:17 PM 44.6 °F 41.4 °F 42.8 °F 93% 29.65 in 5.6 mi WSW 5.8 mph - N/A   Mostly Cloudy
7:25 PM 44.6 °F 41.4 °F 44.6 °F 100% 29.65 in 5.6 mi SW 5.8 mph - N/A   Overcast
7:27 PM 44.6 °F 40.7 °F 44.6 °F 100% 29.65 in 5.6 mi SW 6.9 mph - N/A   Overcast
7:33 PM 44.6 °F 41.4 °F 44.6 °F 100% 29.65 in 6.2 mi SW 5.8 mph - N/A   Mostly Cloudy
7:46 PM 44.6 °F 41.4 °F 42.8 °F 93% 29.65 in 5.6 mi SW 5.8 mph - N/A   Overcast
7:55 PM 42.8 °F 39.3 °F 42.8 °F 100% 29.68 in 4.3 mi SW 5.8 mph - N/A   Overcast
8:16 PM 42.8 °F 39.3 °F 42.8 °F 100% 29.68 in 3.7 mi SW 5.8 mph - N/A   Overcast
8:25 PM 42.8 °F 39.3 °F 42.8 °F 100% 29.68 in 4.3 mi SW 5.8 mph - N/A   Mostly Cloudy
8:33 PM 42.8 °F 39.3 °F 42.8 °F 100% 29.68 in 5.0 mi SW 5.8 mph - N/A   Overcast
8:37 PM 42.8 °F 39.3 °F 42.8 °F 100% 29.68 in 4.3 mi SW 5.8 mph - N/A   Overcast
8:48 PM 42.8 °F 38.6 °F 42.8 °F 100% 29.68 in 4.3 mi SW 6.9 mph - N/A   Mostly Cloudy
8:55 PM 42.8 °F 38.0 °F 42.8 °F 100% 29.68 in 3.7 mi SW 8.1 mph - N/A   Mostly Cloudy
9:02 PM 42.8 °F 38.0 °F 42.8 °F 100% 29.68 in 5.0 mi SW 8.1 mph - N/A   Mostly Cloudy
9:15 PM 42.8 °F 37.5 °F 42.8 °F 100% 29.68 in 5.0 mi SW 9.2 mph - N/A   Mostly Cloudy
9:25 PM 44.6 °F 39.7 °F 42.8 °F 93% 29.68 in 5.6 mi SW 9.2 mph - N/A   Mostly Cloudy
9:30 PM 44.6 °F 39.7 °F 42.8 °F 93% 29.68 in 5.6 mi SW 9.2 mph - N/A   Mostly Cloudy
9:55 PM 42.8 °F 37.5 °F 42.8 °F 100% 29.71 in 5.6 mi SW 9.2 mph - N/A   Mostly Cloudy
10:00 PM 43 °F - 42 °F 97% 29.72 in 6 mi SW 8.9 mph - -   Unknown Precipitation
10:09 PM 42.8 °F 37.5 °F 42.8 °F 100% 29.71 in 6.2 mi SW 9.2 mph - N/A   Overcast
10:15 PM 42.8 °F 37.0 °F 42.8 °F 100% 29.71 in 6.2 mi SW 10.4 mph - N/A   Mostly Cloudy
10:25 PM 42.8 °F 37.0 °F 42.8 °F 100% 29.71 in 6.2 mi SW 10.4 mph - N/A   Overcast
10:55 PM 42.8 °F 37.0 °F 42.8 °F 100% 29.71 in 6.2 mi WSW 10.4 mph - N/A   Overcast